| time (UTC) | temp F | wind direction | speed knots | gust knots | rain 1hr in | rain 24hr in | rain mn in | humidity % | barometer mb |
| 20260506233015 | 62 | 84 | 2.6 | 3.5 | 0.00 | 0.00 | 0.00 | 67 | 1016.9 |
| 20260506232511 | 62 | 39 | 0.9 | 1.7 | 0.00 | 0.00 | 0.00 | 67 | 1016.9 |
| 20260506232007 | 61 | 55 | 0.9 | 2.6 | 0.00 | 0.00 | 0.00 | 68 | 1016.9 |
| 20260506231505 | 61 | 350 | 1.7 | 5.2 | 0.00 | 0.00 | 0.00 | 69 | 1016.8 |
| 20260506231002 | 61 | 176 | 1.7 | 2.6 | 0.00 | 0.00 | 0.00 | 68 | 1016.7 |
| 20260506230458 | 62 | 70 | 2.6 | 3.5 | 0.00 | 0.00 | 0.00 | 67 | 1016.8 |
| 20260506225955 | 61 | 34 | 1.7 | 2.6 | 0.00 | 0.00 | 0.00 | 69 | 1016.8 |
| 20260506225452 | 62 | 91 | 2.6 | 5.2 | 0.00 | 0.00 | 0.00 | 68 | 1017.0 |
| 20260506224949 | 61 | 310 | 3.5 | 5.2 | 0.00 | 0.00 | 0.00 | 69 | 1016.7 |
| 20260506224446 | 61 | 349 | 3.5 | 3.5 | 0.00 | 0.00 | 0.00 | 68 | 1016.7 |
| 20260506223942 | 61 | 355 | 2.6 | 2.6 | 0.00 | 0.00 | 0.00 | 68 | 1016.8 |
| 20260506223438 | 61 | 42 | 3.5 | 5.2 | 0.00 | 0.00 | 0.00 | 68 | 1016.7 |
| 20260506222936 | 61 | 353 | 3.5 | 5.2 | 0.00 | 0.00 | 0.00 | 69 | 1016.7 |
| 20260506222432 | 61 | 331 | 3.5 | 5.2 | 0.00 | 0.00 | 0.00 | 67 | 1016.6 |
| 20260506221929 | 61 | 0 | 3.5 | 3.5 | 0.00 | 0.00 | 0.00 | 68 | 1016.4 |
| 20260506221426 | 62 | 30 | 2.6 | 2.6 | 0.00 | 0.00 | 0.00 | 67 | 1016.4 |
| 20260506220924 | 62 | 279 | 1.7 | 1.7 | 0.00 | 0.00 | 0.00 | 68 | 1016.4 |
| 20260506220419 | 62 | 70 | 1.7 | 1.7 | 0.00 | 0.00 | 0.00 | 67 | 1016.4 |
| 20260506215916 | 62 | 132 | 0.9 | 1.7 | 0.00 | 0.00 | 0.00 | 68 | 1016.5 |
| 20260506215412 | 62 | 10 | 1.7 | 2.6 | 0.00 | 0.00 | 0.00 | 67 | 1016.5 |
| 20260506214908 | 62 | 346 | 2.6 | 2.6 | 0.00 | 0.00 | 0.00 | 67 | 1016.6 |
| 20260506214405 | 62 | 344 | 1.7 | 2.6 | 0.00 | 0.00 | 0.00 | 66 | 1016.5 |
| 20260506213903 | 63 | 267 | 1.7 | 1.7 | 0.00 | 0.00 | 0.00 | 65 | 1016.6 |
| 20260506213400 | 63 | 333 | 3.5 | 3.5 | 0.00 | 0.00 | 0.00 | 65 | 1016.4 |
| 20260506212858 | 63 | 335 | 1.7 | 1.7 | 0.00 | 0.00 | 0.00 | 65 | 1016.4 |
| 20260506212353 | 63 | 345 | 4.3 | 5.2 | 0.00 | 0.00 | 0.00 | 65 | 1016.5 |
| 20260506211848 | 64 | 304 | 3.5 | 3.5 | 0.00 | 0.00 | 0.00 | 65 | 1016.4 |
| 20260506211344 | 64 | 346 | 2.6 | 2.6 | 0.00 | 0.00 | 0.00 | 63 | 1016.6 |
| 20260506210842 | 64 | 349 | 0.9 | 1.7 | 0.00 | 0.00 | 0.00 | 62 | 1016.8 |
| 20260506210338 | 64 | 85 | 0.9 | 0.9 | 0.00 | 0.00 | 0.00 | 61 | 1016.8 |
| 20260506205836 | 64 | 205 | 0.0 | 0.0 | 0.00 | 0.00 | 0.00 | 63 | 1016.8 |
| 20260506205332 | 63 | 99 | 0.9 | 1.7 | 0.00 | 0.00 | 0.00 | 64 | 1016.9 |
| 20260506204828 | 64 | 210 | 1.7 | 1.7 | 0.00 | 0.00 | 0.00 | 62 | 1017.0 |
| 20260506204326 | 64 | 308 | 1.7 | 1.7 | 0.00 | 0.00 | 0.00 | 63 | 1017.0 |
| 20260506203823 | 64 | 295 | 3.5 | 5.2 | 0.00 | 0.00 | 0.00 | 64 | 1017.3 |
| 20260506203320 | 65 | 11 | 0.0 | 0.9 | 0.00 | 0.00 | 0.00 | 60 | 1017.3 |
| 20260506202817 | 63 | 23 | 5.2 | 6.1 | 0.00 | 0.00 | 0.00 | 62 | 1017.3 |
| 20260506202314 | 62 | 104 | 1.7 | 1.7 | 0.00 | 0.00 | 0.00 | 64 | 1017.5 |
| 20260506201811 | 63 | 6 | 1.7 | 2.6 | 0.00 | 0.00 | 0.00 | 65 | 1017.4 |
| 20260506201308 | 63 | 197 | 0.0 | 0.0 | 0.00 | 0.00 | 0.00 | 65 | 1017.2 |
| 20260506200805 | 62 | 1 | 1.7 | 1.7 | 0.00 | 0.00 | 0.00 | 65 | 1017.1 |
| 20260506200301 | 64 | 55 | 1.7 | 2.6 | 0.00 | 0.00 | 0.00 | 61 | 1016.9 |
| 20260506195757 | 62 | 35 | 0.9 | 1.7 | 0.00 | 0.00 | 0.00 | 66 | 1016.8 |
| 20260506195254 | 63 | 20 | 2.6 | 3.5 | 0.00 | 0.00 | 0.00 | 63 | 1016.8 |
| 20260506194752 | 62 | 100 | 0.9 | 0.9 | 0.00 | 0.00 | 0.00 | 64 | 1016.8 |
| 20260506194248 | 61 | 324 | 1.7 | 2.6 | 0.00 | 0.00 | 0.00 | 65 | 1016.7 |
| 20260506193746 | 61 | 75 | 0.9 | 1.7 | 0.00 | 0.00 | 0.00 | 66 | 1016.5 |
| 20260506193242 | 62 | 323 | 1.7 | 3.5 | 0.00 | 0.00 | 0.00 | 65 | 1016.3 |
| 20260506192738 | 62 | 134 | 3.5 | 3.5 | 0.00 | 0.00 | 0.00 | 64 | 1016.3 |
| 20260506192235 | 62 | 330 | 2.6 | 3.5 | 0.00 | 0.00 | 0.00 | 64 | 1016.2 |
| 20260506191732 | 62 | 225 | 0.9 | 1.7 | 0.00 | 0.00 | 0.00 | 63 | 1016.4 |
| 20260506191228 | 61 | 323 | 1.7 | 2.6 | 0.00 | 0.00 | 0.00 | 64 | 1016.4 |
| 20260506190726 | 61 | 40 | 1.7 | 2.6 | 0.00 | 0.00 | 0.00 | 63 | 1016.7 |
| 20260506190222 | 62 | 33 | 1.7 | 2.6 | 0.00 | 0.00 | 0.00 | 64 | 1016.6 |
| 20260506185719 | 62 | 334 | 3.5 | 6.1 | 0.00 | 0.00 | 0.00 | 63 | 1016.6 |
| 20260506185215 | 61 | 266 | 3.5 | 5.2 | 0.00 | 0.00 | 0.00 | 64 | 1016.8 |
| 20260506184713 | 61 | 29 | 3.5 | 3.5 | 0.00 | 0.00 | 0.00 | 65 | 1016.6 |
| 20260506184210 | 60 | 14 | 7.0 | 9.6 | 0.00 | 0.00 | 0.00 | 64 | 1016.4 |
| 20260506183707 | 60 | 293 | 2.6 | 2.6 | 0.00 | 0.00 | 0.00 | 65 | 1016.8 |
| 20260506183203 | 60 | 71 | 1.7 | 2.6 | 0.00 | 0.00 | 0.00 | 66 | 1016.6 |
| 20260506182700 | 59 | 17 | 0.9 | 1.7 | 0.00 | 0.00 | 0.00 | 68 | 1016.6 |
| 20260506182157 | 59 | 273 | 2.6 | 2.6 | 0.00 | 0.00 | 0.00 | 67 | 1016.9 |
| 20260506181655 | 59 | 1 | 3.5 | 6.1 | 0.00 | 0.00 | 0.00 | 67 | 1017.3 |
| 20260506181152 | 59 | 50 | 1.7 | 2.6 | 0.00 | 0.00 | 0.00 | 67 | 1017.1 |
| 20260506180649 | 58 | 64 | 2.6 | 3.5 | 0.00 | 0.00 | 0.00 | 67 | 1017.1 |
| 20260506180145 | 59 | 53 | 0.9 | 0.9 | 0.00 | 0.00 | 0.00 | 67 | 1017.4 |
| 20260506175642 | 59 | 33 | 2.6 | 2.6 | 0.00 | 0.00 | 0.00 | 66 | 1017.2 |
| 20260506175139 | 59 | 329 | 2.6 | 2.6 | 0.00 | 0.00 | 0.00 | 66 | 1017.4 |
| 20260506174637 | 58 | 335 | 3.5 | 3.5 | 0.00 | 0.00 | 0.00 | 67 | 1017.5 |
| 20260506174134 | 59 | 313 | 3.5 | 5.2 | 0.00 | 0.00 | 0.00 | 66 | 1017.5 |
| 20260506173631 | 59 | 45 | 2.6 | 3.5 | 0.00 | 0.00 | 0.00 | 66 | 1017.5 |
| 20260506173128 | 58 | 18 | 2.6 | 3.5 | 0.00 | 0.00 | 0.00 | 67 | 1017.3 |
| 20260506172625 | 58 | 352 | 3.5 | 5.2 | 0.00 | 0.00 | 0.00 | 67 | 1017.5 |
| 20260506172121 | 58 | 28 | 4.3 | 6.1 | 0.00 | 0.00 | 0.00 | 68 | 1017.2 |
| 20260506171619 | 58 | 73 | 3.5 | 6.1 | 0.00 | 0.00 | 0.00 | 66 | 1017.3 |
| 20260506171117 | 57 | 24 | 3.5 | 6.1 | 0.00 | 0.00 | 0.00 | 69 | 1017.3 |
| 20260506170615 | 57 | 6 | 5.2 | 7.0 | 0.00 | 0.00 | 0.00 | 68 | 1017.2 |
| 20260506170111 | 57 | 11 | 3.5 | 6.1 | 0.00 | 0.00 | 0.00 | 69 | 1017.4 |
| 20260506165609 | 57 | 354 | 3.5 | 7.0 | 0.00 | 0.00 | 0.00 | 69 | 1017.6 |
| 20260506165105 | 57 | 12 | 4.3 | 6.1 | 0.00 | 0.00 | 0.00 | 68 | 1017.7 |
| 20260506164603 | 57 | 325 | 4.3 | 6.1 | 0.00 | 0.00 | 0.00 | 68 | 1017.3 |
| 20260506164100 | 57 | 306 | 0.9 | 0.9 | 0.00 | 0.00 | 0.00 | 70 | 1017.3 |
| 20260506163555 | 58 | 312 | 2.6 | 3.5 | 0.00 | 0.00 | 0.00 | 67 | 1017.4 |
| 20260506163052 | 58 | 24 | 3.5 | 5.2 | 0.00 | 0.00 | 0.00 | 67 | 1017.4 |
| 20260506162548 | 58 | 40 | 4.3 | 5.2 | 0.00 | 0.00 | 0.00 | 68 | 1017.7 |
| 20260506162045 | 57 | 59 | 0.9 | 0.9 | 0.00 | 0.00 | 0.00 | 70 | 1018.2 |
| 20260506161543 | 56 | 338 | 4.3 | 5.2 | 0.00 | 0.00 | 0.00 | 69 | 1018.3 |
| 20260506161039 | 57 | 179 | 0.9 | 0.9 | 0.00 | 0.00 | 0.00 | 69 | 1018.2 |
| 20260506160537 | 56 | 60 | 0.9 | 0.9 | 0.00 | 0.00 | 0.00 | 70 | 1018.2 |
| 20260506160034 | 56 | 162 | 0.9 | 0.9 | 0.00 | 0.00 | 0.00 | 70 | 1018.5 |
| 20260506155532 | 55 | 114 | 0.9 | 0.9 | 0.00 | 0.00 | 0.00 | 71 | 1018.7 |
| 20260506153703 | 54 | 36 | 1.7 | 1.7 | 0.00 | 0.00 | 0.00 | 72 | 1017.9 |
| 20260506153201 | 55 | 335 | 3.5 | 3.5 | 0.00 | 0.00 | 0.00 | 72 | 1017.6 |
| 20260506152658 | 54 | 123 | 0.0 | 0.0 | 0.00 | 0.00 | 0.00 | 72 | 1018.1 |
| 20260506152155 | 54 | 27 | 3.5 | 5.2 | 0.00 | 0.00 | 0.00 | 72 | 1017.9 |
| 20260506151654 | 54 | 308 | 3.5 | 5.2 | 0.00 | 0.00 | 0.00 | 72 | 1017.6 |
| 20260506151150 | 53 | 166 | 0.9 | 1.7 | 0.00 | 0.00 | 0.00 | 73 | 1017.8 |
| 20260506150647 | 53 | 10 | 2.6 | 2.6 | 0.00 | 0.00 | 0.00 | 73 | 1017.6 |
| 20260506150144 | 53 | 39 | 1.7 | 2.6 | 0.00 | 0.00 | 0.00 | 73 | 1017.6 |
| 20260506145641 | 53 | 340 | 2.6 | 2.6 | 0.00 | 0.00 | 0.00 | 73 | 1017.7 |
| 20260506145137 | 53 | 341 | 4.3 | 5.2 | 0.00 | 0.00 | 0.00 | 72 | 1017.9 |
| 20260506144635 | 53 | 338 | 2.6 | 3.5 | 0.00 | 0.00 | 0.00 | 73 | 1017.5 |
| 20260506144131 | 52 | 354 | 5.2 | 6.1 | 0.00 | 0.00 | 0.00 | 74 | 1017.6 |
| 20260506143629 | 52 | 342 | 3.5 | 6.1 | 0.00 | 0.00 | 0.00 | 74 | 1017.8 |
| 20260506143127 | 52 | 207 | 0.9 | 1.7 | 0.00 | 0.00 | 0.00 | 75 | 1017.9 |
| 20260506142625 | 52 | 23 | 0.9 | 1.7 | 0.00 | 0.00 | 0.00 | 75 | 1017.8 |
| 20260506142123 | 52 | 341 | 2.6 | 2.6 | 0.00 | 0.00 | 0.00 | 74 | 1017.9 |
| 20260506141620 | 52 | 5 | 4.3 | 6.1 | 0.00 | 0.00 | 0.00 | 74 | 1017.5 |
| 20260506141119 | 52 | 304 | 3.5 | 5.2 | 0.00 | 0.00 | 0.00 | 74 | 1017.4 |
| 20260506140616 | 52 | 352 | 2.6 | 2.6 | 0.00 | 0.00 | 0.00 | 73 | 1017.1 |
| 20260506140113 | 52 | 77 | 2.6 | 3.5 | 0.00 | 0.00 | 0.00 | 74 | 1017.1 |
| 20260506135610 | 52 | 337 | 3.5 | 5.2 | 0.00 | 0.00 | 0.00 | 74 | 1016.9 |
| 20260506135106 | 52 | 336 | 3.5 | 5.2 | 0.00 | 0.00 | 0.00 | 75 | 1016.7 |
| 20260506134602 | 52 | 173 | 1.7 | 2.6 | 0.00 | 0.00 | 0.00 | 75 | 1016.7 |
| 20260506134058 | 52 | 302 | 4.3 | 7.0 | 0.00 | 0.00 | 0.00 | 75 | 1016.8 |
| 20260506133556 | 52 | 244 | 2.6 | 2.6 | 0.00 | 0.00 | 0.00 | 75 | 1016.7 |
| 20260506133053 | 52 | 105 | 1.7 | 3.5 | 0.00 | 0.00 | 0.00 | 75 | 1016.6 |
| 20260506132550 | 51 | 320 | 3.5 | 7.0 | 0.00 | 0.00 | 0.00 | 75 | 1016.9 |
| 20260506132047 | 51 | 308 | 1.7 | 1.7 | 0.00 | 0.00 | 0.00 | 75 | 1016.6 |
| 20260506131544 | 51 | 8 | 4.3 | 7.8 | 0.00 | 0.00 | 0.00 | 75 | 1016.6 |
| 20260506131040 | 51 | 309 | 2.6 | 2.6 | 0.00 | 0.00 | 0.00 | 76 | 1016.5 |
| 20260506130538 | 51 | 7 | 1.7 | 1.7 | 0.00 | 0.00 | 0.00 | 76 | 1016.6 |
| 20260506130035 | 51 | 42 | 0.9 | 1.7 | 0.00 | 0.00 | 0.00 | 76 | 1016.4 |
| 20260506125533 | 51 | 359 | 1.7 | 1.7 | 0.00 | 0.00 | 0.00 | 77 | 1016.4 |
| 20260506125031 | 51 | 44 | 0.9 | 1.7 | 0.00 | 0.00 | 0.00 | 77 | 1016.2 |
| 20260506124528 | 51 | 318 | 0.9 | 1.7 | 0.00 | 0.00 | 0.00 | 77 | 1015.9 |
| 20260506124026 | 51 | 318 | 2.6 | 5.2 | 0.00 | 0.00 | 0.00 | 76 | 1016.2 |
| 20260506123524 | 51 | 282 | 0.9 | 1.7 | 0.00 | 0.00 | 0.00 | 77 | 1015.7 |
| 20260506123021 | 51 | 6 | 0.9 | 1.7 | 0.00 | 0.00 | 0.00 | 77 | 1015.8 |
| 20260506122518 | 51 | 36 | 4.3 | 6.1 | 0.00 | 0.00 | 0.00 | 77 | 1016.0 |
| 20260506122016 | 51 | 353 | 2.6 | 2.6 | 0.00 | 0.00 | 0.00 | 77 | 1015.9 |
| 20260506121513 | 51 | 348 | 1.7 | 3.5 | 0.00 | 0.00 | 0.00 | 78 | 1016.2 |
| 20260506121009 | 51 | 356 | 1.7 | 1.7 | 0.00 | 0.00 | 0.00 | 78 | 1015.8 |
| 20260506120508 | 51 | 352 | 1.7 | 1.7 | 0.00 | 0.00 | 0.00 | 78 | 1015.7 |
| 20260506120005 | 51 | 27 | 1.7 | 2.6 | 0.00 | 0.00 | 0.00 | 78 | 1015.9 |
| 20260506115502 | 51 | 17 | 1.7 | 2.6 | 0.00 | 0.00 | 0.00 | 79 | 1015.7 |
| 20260506115001 | 50 | 236 | 1.7 | 1.7 | 0.00 | 0.00 | 0.00 | 79 | 1015.9 |
| 20260506114457 | 50 | 354 | 2.6 | 5.2 | 0.00 | 0.00 | 0.00 | 79 | 1015.6 |
| 20260506113956 | 50 | 63 | 1.7 | 2.6 | 0.00 | 0.00 | 0.00 | 79 | 1015.8 |
| 20260506113453 | 50 | 348 | 2.6 | 3.5 | 0.00 | 0.00 | 0.00 | 80 | 1015.6 |
| 20260506112950 | 50 | 21 | 2.6 | 2.6 | 0.00 | 0.00 | 0.00 | 80 | 1015.6 |
| 20260506112447 | 50 | 352 | 3.5 | 3.5 | 0.00 | 0.00 | 0.00 | 80 | 1015.6 |
| 20260506111944 | 50 | 43 | 1.7 | 1.7 | 0.00 | 0.00 | 0.00 | 81 | 1015.2 |
| 20260506111443 | 50 | 321 | 2.6 | 3.5 | 0.00 | 0.00 | 0.00 | 81 | 1015.3 |
| 20260506110939 | 50 | 103 | 0.9 | 0.9 | 0.00 | 0.00 | 0.00 | 81 | 1015.5 |
| 20260506110437 | 50 | 8 | 1.7 | 2.6 | 0.00 | 0.00 | 0.00 | 82 | 1015.3 |
| 20260506105933 | 50 | 308 | 3.5 | 3.5 | 0.00 | 0.00 | 0.00 | 82 | 1015.4 |
| 20260506105430 | 50 | 340 | 2.6 | 2.6 | 0.00 | 0.00 | 0.00 | 82 | 1015.3 |
| 20260506104927 | 50 | 343 | 3.5 | 6.1 | 0.00 | 0.00 | 0.00 | 82 | 1015.3 |
| 20260506104425 | 50 | 346 | 4.3 | 6.1 | 0.00 | 0.00 | 0.00 | 82 | 1015.1 |
| 20260506103923 | 50 | 353 | 3.5 | 5.2 | 0.00 | 0.00 | 0.00 | 82 | 1015.3 |
| 20260506103420 | 50 | 13 | 3.5 | 6.1 | 0.00 | 0.00 | 0.00 | 82 | 1015.0 |
| 20260506102917 | 50 | 215 | 2.6 | 3.5 | 0.00 | 0.00 | 0.00 | 82 | 1015.0 |
| 20260506102415 | 50 | 333 | 2.6 | 3.5 | 0.00 | 0.00 | 0.00 | 82 | 1015.1 |
| 20260506101912 | 50 | 334 | 4.3 | 6.1 | 0.00 | 0.00 | 0.00 | 82 | 1015.1 |
| 20260506101408 | 50 | 344 | 3.5 | 6.1 | 0.00 | 0.00 | 0.00 | 83 | 1014.8 |
| 20260506100906 | 50 | 322 | 2.6 | 3.5 | 0.00 | 0.00 | 0.00 | 82 | 1014.8 |
| 20260506100404 | 50 | 266 | 2.6 | 3.5 | 0.00 | 0.00 | 0.00 | 82 | 1014.6 |
| 20260506095902 | 50 | 329 | 1.7 | 1.7 | 0.00 | 0.00 | 0.00 | 82 | 1014.6 |
| 20260506095400 | 50 | 324 | 2.6 | 3.5 | 0.00 | 0.00 | 0.00 | 81 | 1014.8 |
| 20260506094856 | 50 | 8 | 3.5 | 5.2 | 0.00 | 0.00 | 0.00 | 81 | 1014.8 |
| 20260506094355 | 50 | 2 | 4.3 | 6.1 | 0.00 | 0.00 | 0.00 | 81 | 1014.4 |
| 20260506093852 | 50 | 10 | 5.2 | 7.0 | 0.00 | 0.00 | 0.00 | 81 | 1014.4 |
| 20260506093350 | 51 | 2 | 5.2 | 7.0 | 0.00 | 0.00 | 0.00 | 80 | 1014.6 |
| 20260506092847 | 51 | 2 | 1.7 | 5.2 | 0.00 | 0.00 | 0.00 | 80 | 1014.4 |
| 20260506092345 | 51 | 86 | 2.6 | 2.6 | 0.00 | 0.00 | 0.00 | 79 | 1014.1 |
| 20260506091841 | 51 | 336 | 4.3 | 6.1 | 0.00 | 0.00 | 0.00 | 79 | 1013.8 |
| 20260506091339 | 51 | 37 | 2.6 | 2.6 | 0.00 | 0.00 | 0.00 | 79 | 1014.0 |
| 20260506090836 | 51 | 337 | 1.7 | 2.6 | 0.00 | 0.00 | 0.00 | 79 | 1013.9 |
| 20260506090334 | 51 | 328 | 3.5 | 5.2 | 0.00 | 0.00 | 0.00 | 79 | 1013.8 |
| 20260506085830 | 51 | 356 | 1.7 | 1.7 | 0.00 | 0.00 | 0.00 | 79 | 1013.7 |
| 20260506085326 | 51 | 352 | 1.7 | 2.6 | 0.00 | 0.00 | 0.00 | 79 | 1013.8 |
| 20260506084823 | 51 | 255 | 0.9 | 1.7 | 0.00 | 0.00 | 0.00 | 79 | 1013.7 |
| 20260506084320 | 52 | 331 | 1.7 | 2.6 | 0.00 | 0.00 | 0.00 | 79 | 1013.7 |
| 20260506083817 | 52 | 25 | 1.7 | 3.5 | 0.00 | 0.00 | 0.00 | 78 | 1013.5 |
| 20260506083314 | 52 | 190 | 1.7 | 1.7 | 0.00 | 0.00 | 0.00 | 78 | 1013.4 |
| 20260506082812 | 52 | 356 | 1.7 | 1.7 | 0.00 | 0.00 | 0.00 | 78 | 1013.4 |
| 20260506082308 | 52 | 295 | 1.7 | 2.6 | 0.00 | 0.00 | 0.00 | 78 | 1013.3 |
| 20260506081805 | 52 | 348 | 1.7 | 1.7 | 0.00 | 0.00 | 0.00 | 77 | 1013.6 |
| 20260506081302 | 52 | 259 | 3.5 | 3.5 | 0.00 | 0.00 | 0.00 | 77 | 1013.4 |
| 20260506080800 | 52 | 326 | 1.7 | 2.6 | 0.00 | 0.00 | 0.00 | 77 | 1013.2 |
| 20260506080256 | 52 | 55 | 1.7 | 1.7 | 0.00 | 0.00 | 0.00 | 78 | 1013.5 |
| 20260506073240 | 52 | 306 | 2.6 | 3.5 | 0.00 | 0.00 | 0.00 | 78 | 1013.4 |
| 20260506072737 | 52 | 331 | 3.5 | 3.5 | 0.00 | 0.00 | 0.00 | 78 | 1013.4 |
| 20260506072235 | 53 | 287 | 1.7 | 1.7 | 0.00 | 0.00 | 0.00 | 77 | 1013.2 |
| 20260506071732 | 53 | 29 | 1.7 | 2.6 | 0.00 | 0.00 | 0.00 | 77 | 1013.1 |
| 20260506071230 | 52 | 7 | 0.9 | 0.9 | 0.00 | 0.00 | 0.00 | 77 | 1013.4 |
| 20260506070727 | 52 | 0 | 2.6 | 3.5 | 0.00 | 0.00 | 0.00 | 77 | 1013.0 |
| 20260506070224 | 53 | 351 | 1.7 | 1.7 | 0.00 | 0.00 | 0.00 | 78 | 1013.2 |
| 20260506062200 | 53 | 14 | 2.6 | 5.2 | 0.00 | 0.00 | 0.00 | 78 | 1012.5 |
| 20260506061656 | 53 | 327 | 0.9 | 1.7 | 0.00 | 0.00 | 0.00 | 78 | 1012.7 |
| 20260506061154 | 53 | 46 | 3.5 | 5.2 | 0.00 | 0.00 | 0.00 | 78 | 1013.0 |
| 20260506060653 | 53 | 311 | 3.5 | 3.5 | 0.00 | 0.00 | 0.00 | 78 | 1012.9 |
| 20260506060149 | 53 | 79 | 1.7 | 2.6 | 0.00 | 0.00 | 0.00 | 78 | 1012.9 |
| 20260506051121 | 54 | 4 | 2.6 | 3.5 | 0.00 | 0.00 | 0.00 | 77 | 1012.8 |
| 20260506050619 | 54 | 37 | 2.6 | 5.2 | 0.00 | 0.00 | 0.00 | 77 | 1012.9 |
| 20260506050116 | 54 | 48 | 2.6 | 3.5 | 0.00 | 0.00 | 0.00 | 77 | 1013.0 |
| 20260506045109 | 54 | 323 | 3.5 | 3.5 | 0.00 | 0.00 | 0.00 | 77 | 1013.0 |
| 20260506044607 | 54 | 330 | 3.5 | 3.5 | 0.00 | 0.00 | 0.00 | 77 | 1012.9 |
| 20260506044104 | 54 | 340 | 3.5 | 6.1 | 0.00 | 0.00 | 0.00 | 77 | 1013.1 |
| 20260506043601 | 55 | 303 | 2.6 | 6.1 | 0.00 | 0.00 | 0.00 | 77 | 1012.9 |
| 20260506043059 | 54 | 2 | 2.6 | 3.5 | 0.00 | 0.00 | 0.00 | 77 | 1013.0 |
| 20260506042558 | 55 | 39 | 3.5 | 6.1 | 0.00 | 0.00 | 0.00 | 77 | 1013.2 |
| 20260506042056 | 55 | 17 | 2.6 | 3.5 | 0.00 | 0.00 | 0.00 | 78 | 1013.1 |
| 20260506041554 | 55 | 356 | 2.6 | 2.6 | 0.00 | 0.00 | 0.00 | 78 | 1013.2 |
| 20260506041050 | 55 | 303 | 2.6 | 2.6 | 0.00 | 0.00 | 0.00 | 78 | 1013.0 |
| 20260506040549 | 55 | 15 | 2.6 | 2.6 | 0.00 | 0.00 | 0.00 | 78 | 1013.2 |
| 20260506040044 | 55 | 46 | 2.6 | 3.5 | 0.00 | 0.00 | 0.00 | 78 | 1012.9 |
| 20260506035542 | 55 | 12 | 3.5 | 6.1 | 0.00 | 0.00 | 0.00 | 78 | 1012.8 |
| 20260506035038 | 55 | 36 | 1.7 | 2.6 | 0.00 | 0.00 | 0.00 | 78 | 1012.8 |
| 20260506034536 | 55 | 21 | 1.7 | 2.6 | 0.00 | 0.00 | 0.00 | 78 | 1012.9 |
| 20260506034032 | 55 | 333 | 3.5 | 3.5 | 0.00 | 0.00 | 0.00 | 78 | 1013.1 |
| 20260506033530 | 55 | 20 | 2.6 | 3.5 | 0.00 | 0.00 | 0.00 | 78 | 1013.0 |
| 20260506033027 | 55 | 99 | 1.7 | 1.7 | 0.00 | 0.00 | 0.00 | 79 | 1013.0 |
| 20260506032524 | 55 | 341 | 1.7 | 1.7 | 0.00 | 0.00 | 0.00 | 79 | 1013.1 |
| 20260506032020 | 55 | 352 | 4.3 | 5.2 | 0.00 | 0.00 | 0.00 | 78 | 1013.1 |
| 20260506031518 | 55 | 321 | 1.7 | 1.7 | 0.00 | 0.00 | 0.00 | 79 | 1012.9 |
| 20260506031015 | 55 | 327 | 0.9 | 1.7 | 0.00 | 0.00 | 0.00 | 79 | 1012.9 |
| 20260506030513 | 55 | 341 | 2.6 | 3.5 | 0.00 | 0.00 | 0.00 | 79 | 1012.6 |
| 20260506030010 | 56 | 331 | 3.5 | 3.5 | 0.00 | 0.00 | 0.00 | 79 | 1012.5 |
| 20260506025507 | 56 | 352 | 2.6 | 3.5 | 0.00 | 0.00 | 0.00 | 79 | 1012.4 |
| 20260506025003 | 56 | 21 | 1.7 | 1.7 | 0.00 | 0.00 | 0.00 | 80 | 1012.3 |
| 20260506024500 | 56 | 343 | 4.3 | 6.1 | 0.00 | 0.00 | 0.00 | 80 | 1012.3 |
| 20260506023956 | 56 | 119 | 1.7 | 2.6 | 0.00 | 0.00 | 0.00 | 80 | 1012.3 |
| 20260506023453 | 56 | 354 | 1.7 | 1.7 | 0.00 | 0.00 | 0.00 | 80 | 1011.6 |
| 20260506022949 | 56 | 25 | 1.7 | 1.7 | 0.00 | 0.00 | 0.00 | 80 | 1011.3 |
| 20260506022447 | 57 | 106 | 0.9 | 1.7 | 0.00 | 0.00 | 0.00 | 80 | 1011.4 |
| 20260506021945 | 57 | 347 | 1.7 | 2.6 | 0.00 | 0.00 | 0.00 | 80 | 1011.1 |
| 20260506021442 | 57 | 322 | 2.6 | 3.5 | 0.00 | 0.00 | 0.00 | 80 | 1010.9 |
| 20260506020939 | 57 | 52 | 4.3 | 6.1 | 0.00 | 0.00 | 0.00 | 80 | 1011.0 |
| 20260506020437 | 57 | 173 | 1.7 | 2.6 | 0.00 | 0.00 | 0.00 | 80 | 1010.2 |
| 20260506015934 | 57 | 306 | 5.2 | 6.1 | 0.00 | 0.00 | 0.00 | 80 | 1010.2 |
| 20260506015431 | 58 | 102 | 3.5 | 5.2 | 0.00 | 0.00 | 0.00 | 80 | 1010.2 |
| 20260506014928 | 58 | 26 | 4.3 | 5.2 | 0.00 | 0.00 | 0.00 | 80 | 1010.2 |
| 20260506014425 | 58 | 5 | 3.5 | 3.5 | 0.00 | 0.00 | 0.00 | 80 | 1010.0 |
| 20260506013921 | 58 | 352 | 2.6 | 3.5 | 0.00 | 0.00 | 0.00 | 80 | 1010.2 |
| 20260506013420 | 59 | 99 | 3.5 | 6.1 | 0.00 | 0.00 | 0.00 | 79 | 1009.9 |
| 20260506012916 | 59 | 202 | 2.6 | 3.5 | 0.00 | 0.00 | 0.00 | 79 | 1010.0 |
| 20260506012412 | 60 | 351 | 3.5 | 3.5 | 0.00 | 0.00 | 0.00 | 79 | 1009.6 |
| 20260506011909 | 60 | 276 | 2.6 | 3.5 | 0.00 | 0.00 | 0.00 | 78 | 1009.8 |
| 20260506011406 | 60 | 44 | 3.5 | 6.1 | 0.00 | 0.00 | 0.00 | 78 | 1009.7 |
| 20260506010903 | 60 | 285 | 4.3 | 6.1 | 0.00 | 0.00 | 0.00 | 78 | 1009.4 |
| 20260506010402 | 61 | 289 | 3.5 | 7.0 | 0.00 | 0.00 | 0.00 | 77 | 1009.5 |
| 20260506005858 | 61 | 351 | 3.5 | 5.2 | 0.00 | 0.00 | 0.00 | 77 | 1009.4 |
| 20260506005355 | 61 | 303 | 1.7 | 1.7 | 0.00 | 0.00 | 0.00 | 77 | 1009.2 |
| 20260506004851 | 62 | 311 | 3.5 | 3.5 | 0.00 | 0.00 | 0.00 | 77 | 1009.2 |
| 20260506004349 | 62 | 316 | 1.7 | 2.6 | 0.00 | 0.00 | 0.00 | 77 | 1009.6 |
| 20260506003845 | 62 | 75 | 1.7 | 2.6 | 0.00 | 0.00 | 0.00 | 77 | 1009.5 |
| 20260506003341 | 62 | 90 | 2.6 | 3.5 | 0.00 | 0.00 | 0.00 | 76 | 1009.4 |
| 20260506002838 | 62 | 282 | 4.3 | 5.2 | 0.00 | 0.00 | 0.00 | 76 | 1009.2 |
| 20260506002334 | 63 | 268 | 2.6 | 2.6 | 0.00 | 0.00 | 0.00 | 75 | 1008.9 |
| 20260506001829 | 63 | 95 | 2.6 | 3.5 | 0.00 | 0.00 | 0.00 | 76 | 1009.3 |
| 20260506001327 | 63 | 354 | 2.6 | 2.6 | 0.00 | 0.00 | 0.00 | 75 | 1009.4 |
| 20260506000824 | 64 | 310 | 2.6 | 5.2 | 0.00 | 0.00 | 0.00 | 75 | 1009.3 |
| 20260506000323 | 64 | 332 | 5.2 | 6.1 | 0.00 | 0.00 | 0.00 | 74 | 1009.0 |
| 20260505235818 | 64 | 309 | 1.7 | 3.5 | 0.00 | 0.00 | 0.00 | 74 | 1009.1 |
| 20260505235316 | 64 | 32 | 3.5 | 3.5 | 0.00 | 0.00 | 0.00 | 74 | 1008.9 |
| 20260505234813 | 64 | 0 | 3.5 | 3.5 | 0.00 | 0.00 | 0.00 | 74 | 1008.5 |
| 20260505234310 | 65 | 20 | 3.5 | 5.2 | 0.00 | 0.00 | 0.00 | 73 | 1008.7 |
| 20260505233807 | 65 | 325 | 4.3 | 5.2 | 0.00 | 0.00 | 0.00 | 74 | 1008.8 |